Year,Month,Day,Hour,Minute,Value (Times are PST for temperature in C)
2014,07,17,00,00,21.40
2014,07,17,00,01,21.30
2014,07,17,00,02,21.30
2014,07,17,00,03,21.30
2014,07,17,00,04,21.30
2014,07,17,00,05,21.30
2014,07,17,00,06,21.20
2014,07,17,00,07,21.20
2014,07,17,00,08,21.20
2014,07,17,00,09,21.20
2014,07,17,00,10,21.10
2014,07,17,00,11,21.10
2014,07,17,00,12,21.10
2014,07,17,00,13,21.00
2014,07,17,00,14,21.00
2014,07,17,00,15,20.90
2014,07,17,00,16,20.90
2014,07,17,00,17,20.90
2014,07,17,00,18,20.90
2014,07,17,00,19,20.90
2014,07,17,00,20,20.80
2014,07,17,00,21,20.80
2014,07,17,00,22,20.80
2014,07,17,00,23,20.80
2014,07,17,00,24,20.80
2014,07,17,00,25,20.70
2014,07,17,00,26,20.70
2014,07,17,00,27,20.70
2014,07,17,00,28,20.70
2014,07,17,00,29,20.70
2014,07,17,00,30,20.60
2014,07,17,00,31,20.60
2014,07,17,00,32,20.60
2014,07,17,00,33,20.60
2014,07,17,00,34,20.60
2014,07,17,00,35,20.60
2014,07,17,00,36,20.60
2014,07,17,00,37,20.50
2014,07,17,00,38,20.50
2014,07,17,00,39,20.40
2014,07,17,00,40,20.40
2014,07,17,00,41,20.40
2014,07,17,00,42,20.30
2014,07,17,00,43,20.30
2014,07,17,00,44,20.30
2014,07,17,00,45,20.30
2014,07,17,00,46,20.30
2014,07,17,00,47,20.20
2014,07,17,00,48,20.20
2014,07,17,00,49,20.20
2014,07,17,00,50,20.20
2014,07,17,00,51,20.20
2014,07,17,00,52,20.10
2014,07,17,00,53,20.10
2014,07,17,00,54,20.10
2014,07,17,00,55,20.10
2014,07,17,00,56,20.10
2014,07,17,00,57,20.10
2014,07,17,00,58,20.10
2014,07,17,00,59,20.00
2014,07,17,01,00,20.00
2014,07,17,01,01,20.00
2014,07,17,01,02,20.00
2014,07,17,01,03,20.00
2014,07,17,01,04,20.00
2014,07,17,01,05,20.00
2014,07,17,01,06,19.90
2014,07,17,01,07,19.90
2014,07,17,01,08,19.90
2014,07,17,01,09,19.90
2014,07,17,01,10,19.90
2014,07,17,01,11,19.90
2014,07,17,01,12,19.90
2014,07,17,01,13,19.90
2014,07,17,01,14,19.90
2014,07,17,01,15,19.90
2014,07,17,01,16,19.80
2014,07,17,01,17,19.80
2014,07,17,01,18,19.80
2014,07,17,01,19,19.80
2014,07,17,01,20,19.80
2014,07,17,01,21,19.70
2014,07,17,01,22,19.70
2014,07,17,01,23,19.70
2014,07,17,01,24,19.70
2014,07,17,01,25,19.70
2014,07,17,01,26,19.70
2014,07,17,01,27,19.60
2014,07,17,01,28,19.60
2014,07,17,01,29,19.60
2014,07,17,01,30,19.50
2014,07,17,01,31,19.50
2014,07,17,01,32,19.50
2014,07,17,01,33,19.40
2014,07,17,01,34,19.40
2014,07,17,01,35,19.40
2014,07,17,01,36,19.40
2014,07,17,01,37,19.30
2014,07,17,01,38,19.30
2014,07,17,01,39,19.30
2014,07,17,01,40,19.30
2014,07,17,01,41,19.30
2014,07,17,01,42,19.30
2014,07,17,01,43,19.30
2014,07,17,01,44,19.30
2014,07,17,01,45,19.20
2014,07,17,01,46,19.20
2014,07,17,01,47,19.20
2014,07,17,01,48,19.20
2014,07,17,01,49,19.20
2014,07,17,01,50,19.20
2014,07,17,01,51,19.20
2014,07,17,01,52,19.20
2014,07,17,01,53,19.20
2014,07,17,01,54,19.10
2014,07,17,01,55,19.10
2014,07,17,01,56,19.10
2014,07,17,01,57,19.10
2014,07,17,01,58,19.10
2014,07,17,01,59,19.10
2014,07,17,02,00,19.00
2014,07,17,02,01,19.00
2014,07,17,02,02,19.00
2014,07,17,02,03,18.90
2014,07,17,02,04,18.90
2014,07,17,02,05,18.90
2014,07,17,02,06,18.90
2014,07,17,02,07,18.80
2014,07,17,02,08,18.80
2014,07,17,02,09,18.80
2014,07,17,02,10,18.80
2014,07,17,02,11,18.80
2014,07,17,02,12,18.80
2014,07,17,02,13,18.80
2014,07,17,02,14,18.80
2014,07,17,02,15,18.80
2014,07,17,02,16,18.70
2014,07,17,02,17,18.70
2014,07,17,02,18,18.70
2014,07,17,02,19,18.70
2014,07,17,02,20,18.70
2014,07,17,02,21,18.70
2014,07,17,02,22,18.70
2014,07,17,02,23,18.70
2014,07,17,02,24,18.70
2014,07,17,02,25,18.70
2014,07,17,02,26,18.60
2014,07,17,02,27,18.60
2014,07,17,02,28,18.60
2014,07,17,02,29,18.60
2014,07,17,02,30,18.60
2014,07,17,02,31,18.60
2014,07,17,02,32,18.60
2014,07,17,02,33,18.60
2014,07,17,02,34,18.60
2014,07,17,02,35,18.60
2014,07,17,02,36,18.50
2014,07,17,02,37,18.50
2014,07,17,02,38,18.50
2014,07,17,02,39,18.50
2014,07,17,02,40,18.50
2014,07,17,02,41,18.40
2014,07,17,02,42,18.40
2014,07,17,02,43,18.40
2014,07,17,02,44,18.40
2014,07,17,02,45,18.40
2014,07,17,02,46,18.40
2014,07,17,02,47,18.40
2014,07,17,02,48,18.40
2014,07,17,02,49,18.40
2014,07,17,02,50,18.40
2014,07,17,02,51,18.40
2014,07,17,02,52,18.40
2014,07,17,02,53,18.40
2014,07,17,02,54,18.40
2014,07,17,02,55,18.40
2014,07,17,02,56,18.40
2014,07,17,02,57,18.40
2014,07,17,02,58,18.30
2014,07,17,02,59,18.30
2014,07,17,03,00,18.30
2014,07,17,03,01,18.30
2014,07,17,03,02,18.30
2014,07,17,03,03,18.30
2014,07,17,03,04,18.30
2014,07,17,03,05,18.30
2014,07,17,03,06,18.30
2014,07,17,03,07,18.30
2014,07,17,03,08,18.30
2014,07,17,03,09,18.30
2014,07,17,03,10,18.30
2014,07,17,03,11,18.30
2014,07,17,03,12,18.30
2014,07,17,03,13,18.30
2014,07,17,03,14,18.20
2014,07,17,03,15,18.20
2014,07,17,03,16,18.20
2014,07,17,03,17,18.20
2014,07,17,03,18,18.20
2014,07,17,03,19,18.20
2014,07,17,03,20,18.20
2014,07,17,03,21,18.20
2014,07,17,03,22,18.20
2014,07,17,03,23,18.20
2014,07,17,03,24,18.20
2014,07,17,03,25,18.20
2014,07,17,03,26,18.20
2014,07,17,03,27,18.20
2014,07,17,03,28,18.20
2014,07,17,03,29,18.20
2014,07,17,03,30,18.20
2014,07,17,03,31,18.20
2014,07,17,03,32,18.20
2014,07,17,03,33,18.20
2014,07,17,03,34,18.20
2014,07,17,03,35,18.20
2014,07,17,03,36,18.20
2014,07,17,03,37,18.20
2014,07,17,03,38,18.20
2014,07,17,03,39,18.20
2014,07,17,03,40,18.20
2014,07,17,03,41,18.20
2014,07,17,03,42,18.10
2014,07,17,03,43,18.10
2014,07,17,03,44,18.10
2014,07,17,03,45,18.10
2014,07,17,03,46,18.10
2014,07,17,03,47,18.10
2014,07,17,03,48,18.10
2014,07,17,03,49,18.10
2014,07,17,03,50,18.00
2014,07,17,03,51,18.00
2014,07,17,03,52,18.00
2014,07,17,03,53,18.00
2014,07,17,03,54,18.00
2014,07,17,03,55,18.00
2014,07,17,03,56,18.00
2014,07,17,03,57,17.90
2014,07,17,03,58,17.90
2014,07,17,03,59,17.90
2014,07,17,04,00,17.90
2014,07,17,04,01,17.90
2014,07,17,04,02,17.90
2014,07,17,04,03,17.90
2014,07,17,04,04,17.90
2014,07,17,04,05,17.90
2014,07,17,04,06,17.90
2014,07,17,04,07,17.90
2014,07,17,04,08,17.90
2014,07,17,04,09,17.90
2014,07,17,04,10,17.90
2014,07,17,04,11,17.90
2014,07,17,04,12,17.90
2014,07,17,04,13,17.90
2014,07,17,04,14,17.90
2014,07,17,04,15,17.90
2014,07,17,04,16,17.90
2014,07,17,04,17,17.90
2014,07,17,04,18,17.90
2014,07,17,04,19,17.90
2014,07,17,04,20,17.90
2014,07,17,04,21,17.90
2014,07,17,04,22,17.90
2014,07,17,04,23,17.90
2014,07,17,04,24,17.90
2014,07,17,04,25,17.90
2014,07,17,04,26,17.90
2014,07,17,04,27,17.90
2014,07,17,04,28,17.90
2014,07,17,04,29,17.90
2014,07,17,04,30,17.90
2014,07,17,04,31,17.90
2014,07,17,04,32,17.90
2014,07,17,04,33,17.90
2014,07,17,04,34,17.90
2014,07,17,04,35,17.90
2014,07,17,04,36,17.90
2014,07,17,04,37,17.90
2014,07,17,04,38,17.90
2014,07,17,04,39,17.80
2014,07,17,04,40,17.80
2014,07,17,04,41,17.90
2014,07,17,04,42,17.80
2014,07,17,04,43,17.80
2014,07,17,04,44,17.80
2014,07,17,04,45,17.80
2014,07,17,04,46,17.80
2014,07,17,04,47,17.80
2014,07,17,04,48,17.80
2014,07,17,04,49,17.80
2014,07,17,04,50,17.80
2014,07,17,04,51,17.80
2014,07,17,04,52,17.80
2014,07,17,04,53,17.80
2014,07,17,04,54,17.80
2014,07,17,04,55,17.80
2014,07,17,04,56,17.80
2014,07,17,04,57,17.80
2014,07,17,04,58,17.80
2014,07,17,04,59,17.80
2014,07,17,05,00,17.80
2014,07,17,05,01,17.80
2014,07,17,05,02,17.80
2014,07,17,05,03,17.80
2014,07,17,05,04,17.80
2014,07,17,05,05,17.80
2014,07,17,05,06,17.80
2014,07,17,05,07,17.80
2014,07,17,05,08,17.80
2014,07,17,05,09,17.80
2014,07,17,05,10,17.80
2014,07,17,05,11,17.80
2014,07,17,05,12,17.90
2014,07,17,05,13,17.90
2014,07,17,05,14,17.90
2014,07,17,05,15,17.90
2014,07,17,05,16,17.90
2014,07,17,05,17,17.90
2014,07,17,05,18,17.90
2014,07,17,05,19,17.90
2014,07,17,05,20,17.90
2014,07,17,05,21,17.90
2014,07,17,05,22,17.90
2014,07,17,05,23,17.90
2014,07,17,05,24,17.90
2014,07,17,05,25,17.90
2014,07,17,05,26,17.90
2014,07,17,05,27,18.00
2014,07,17,05,28,18.00
2014,07,17,05,29,18.00
2014,07,17,05,30,18.00
2014,07,17,05,31,18.00
2014,07,17,05,32,17.90
2014,07,17,05,33,17.90
2014,07,17,05,34,17.90
2014,07,17,05,35,17.90
2014,07,17,05,36,18.00
2014,07,17,05,37,18.00
2014,07,17,05,38,18.00
2014,07,17,05,39,18.00
2014,07,17,05,40,18.00
2014,07,17,05,41,18.00
2014,07,17,05,42,18.00
2014,07,17,05,43,18.00
2014,07,17,05,44,17.90
2014,07,17,05,45,17.90
2014,07,17,05,46,17.90
2014,07,17,05,47,17.90
2014,07,17,05,48,17.90
2014,07,17,05,49,17.90
2014,07,17,05,50,17.90
2014,07,17,05,51,17.90
2014,07,17,05,52,17.90
2014,07,17,05,53,17.90
2014,07,17,05,54,17.90
2014,07,17,05,55,17.90
2014,07,17,05,56,17.80
2014,07,17,05,57,17.80
2014,07,17,05,58,17.80
2014,07,17,05,59,17.80
2014,07,17,06,00,17.80
2014,07,17,06,01,17.80
2014,07,17,06,02,17.80
2014,07,17,06,03,17.80
2014,07,17,06,04,17.80
2014,07,17,06,05,17.80
2014,07,17,06,06,17.80
2014,07,17,06,07,17.80
2014,07,17,06,08,17.80
2014,07,17,06,09,17.80
2014,07,17,06,10,17.80
2014,07,17,06,11,17.80
2014,07,17,06,12,17.80
2014,07,17,06,13,17.80
2014,07,17,06,14,17.80
2014,07,17,06,15,17.80
2014,07,17,06,16,17.80
2014,07,17,06,17,17.80
2014,07,17,06,18,17.80
2014,07,17,06,19,17.80
2014,07,17,06,20,17.70
2014,07,17,06,21,17.70
2014,07,17,06,22,17.70
2014,07,17,06,23,17.70
2014,07,17,06,24,17.70
2014,07,17,06,25,17.70
2014,07,17,06,26,17.70
2014,07,17,06,27,17.70
2014,07,17,06,28,17.70
2014,07,17,06,29,17.70
2014,07,17,06,30,17.70
2014,07,17,06,31,17.60
2014,07,17,06,32,17.70
2014,07,17,06,33,17.70
2014,07,17,06,34,17.70
2014,07,17,06,35,17.70
2014,07,17,06,36,17.70
2014,07,17,06,37,17.80
2014,07,17,06,38,17.80
2014,07,17,06,39,17.90
2014,07,17,06,40,17.90
2014,07,17,06,41,17.90
2014,07,17,06,42,17.90
2014,07,17,06,43,18.00
2014,07,17,06,44,18.00
2014,07,17,06,45,18.10
2014,07,17,06,46,18.10
2014,07,17,06,47,18.10
2014,07,17,06,48,18.20
2014,07,17,06,49,18.20
2014,07,17,06,50,18.20
2014,07,17,06,51,18.30
2014,07,17,06,52,18.30
2014,07,17,06,53,18.30
2014,07,17,06,54,18.30
2014,07,17,06,55,18.40
2014,07,17,06,56,18.40
2014,07,17,06,57,18.40
2014,07,17,06,58,18.40
2014,07,17,06,59,18.50
2014,07,17,07,00,18.50
2014,07,17,07,01,18.50
2014,07,17,07,02,18.50
2014,07,17,07,03,18.50
2014,07,17,07,04,18.50
2014,07,17,07,05,18.50
2014,07,17,07,06,18.50
2014,07,17,07,07,18.40
2014,07,17,07,08,18.40
2014,07,17,07,09,18.40
2014,07,17,07,10,18.40
2014,07,17,07,11,18.40
2014,07,17,07,12,18.40
2014,07,17,07,13,18.40
2014,07,17,07,14,18.50
2014,07,17,07,15,18.50
2014,07,17,07,16,18.50
2014,07,17,07,17,18.40
2014,07,17,07,18,18.40
2014,07,17,07,19,18.40
2014,07,17,07,20,18.50
2014,07,17,07,21,18.50
2014,07,17,07,22,18.50
2014,07,17,07,23,18.60
2014,07,17,07,24,18.60
2014,07,17,07,25,18.60
2014,07,17,07,26,18.60
2014,07,17,07,27,18.60
2014,07,17,07,28,18.60
2014,07,17,07,29,18.60
2014,07,17,07,30,18.60
2014,07,17,07,31,18.60
2014,07,17,07,32,18.60
2014,07,17,07,33,18.60
2014,07,17,07,34,18.60
2014,07,17,07,35,18.70
2014,07,17,07,36,18.70
2014,07,17,07,37,18.70
2014,07,17,07,38,18.70
2014,07,17,07,39,18.70
2014,07,17,07,40,18.70
2014,07,17,07,41,18.70
2014,07,17,07,42,18.70
2014,07,17,07,43,18.80
2014,07,17,07,44,18.80
2014,07,17,07,45,18.80
2014,07,17,07,46,18.80
2014,07,17,07,47,18.90
2014,07,17,07,48,18.90
2014,07,17,07,49,18.90
2014,07,17,07,50,19.00
2014,07,17,07,51,19.00
2014,07,17,07,52,19.10
2014,07,17,07,53,19.10
2014,07,17,07,54,19.10
2014,07,17,07,55,19.10
2014,07,17,07,56,19.10
2014,07,17,07,57,19.10
2014,07,17,07,58,19.10
2014,07,17,07,59,19.10
2014,07,17,08,00,19.10
2014,07,17,08,01,19.10
2014,07,17,08,02,19.20
2014,07,17,08,03,19.20
2014,07,17,08,04,19.20
2014,07,17,08,05,19.20
2014,07,17,08,06,19.20
2014,07,17,08,07,19.30
2014,07,17,08,08,19.30
2014,07,17,08,09,19.30
2014,07,17,08,10,19.30
2014,07,17,08,11,19.20
2014,07,17,08,12,19.20
2014,07,17,08,13,19.20
2014,07,17,08,14,19.20
2014,07,17,08,15,19.20
2014,07,17,08,16,19.20
2014,07,17,08,17,19.20
2014,07,17,08,18,19.20
2014,07,17,08,19,19.20
2014,07,17,08,20,19.30
2014,07,17,08,21,19.30
2014,07,17,08,22,19.30
2014,07,17,08,23,19.30
2014,07,17,08,24,19.30
2014,07,17,08,25,19.30
2014,07,17,08,26,19.40
2014,07,17,08,27,19.40
2014,07,17,08,28,19.40
2014,07,17,08,29,19.50
2014,07,17,08,30,19.50
2014,07,17,08,31,19.60
2014,07,17,08,32,19.60
2014,07,17,08,33,19.60
2014,07,17,08,34,19.60
2014,07,17,08,35,19.50
2014,07,17,08,36,19.40
2014,07,17,08,37,19.40
2014,07,17,08,38,19.40
2014,07,17,08,39,19.50
2014,07,17,08,40,19.50
2014,07,17,08,41,19.60
2014,07,17,08,42,19.60
2014,07,17,08,43,19.60
2014,07,17,08,44,19.60
2014,07,17,08,45,19.60
2014,07,17,08,46,19.70
2014,07,17,08,47,19.70
2014,07,17,08,48,19.70
2014,07,17,08,49,19.70
2014,07,17,08,50,19.70
2014,07,17,08,51,19.70
2014,07,17,08,52,19.70
2014,07,17,08,53,19.70
2014,07,17,08,54,19.80
2014,07,17,08,55,19.80
2014,07,17,08,56,19.80
2014,07,17,08,57,19.80
2014,07,17,08,58,19.80
2014,07,17,08,59,19.80
2014,07,17,09,00,19.80
2014,07,17,09,01,19.90
2014,07,17,09,02,19.90
2014,07,17,09,03,19.90
2014,07,17,09,04,19.80
2014,07,17,09,05,19.90
2014,07,17,09,06,19.90
2014,07,17,09,07,19.90
2014,07,17,09,08,19.90
2014,07,17,09,09,19.90
2014,07,17,09,10,20.00
2014,07,17,09,11,20.10
2014,07,17,09,12,20.10
2014,07,17,09,13,20.20
2014,07,17,09,14,20.20
2014,07,17,09,15,20.20
2014,07,17,09,16,20.30
2014,07,17,09,17,20.30
2014,07,17,09,18,20.30
2014,07,17,09,19,20.30
2014,07,17,09,20,20.30
2014,07,17,09,21,20.30
2014,07,17,09,22,20.30
2014,07,17,09,23,20.40
2014,07,17,09,24,20.40
2014,07,17,09,25,20.30
2014,07,17,09,26,20.40
2014,07,17,09,27,20.40
2014,07,17,09,28,20.40
2014,07,17,09,29,20.40
2014,07,17,09,30,20.40
2014,07,17,09,31,20.40
2014,07,17,09,32,20.40
2014,07,17,09,33,20.40
2014,07,17,09,34,20.40
2014,07,17,09,35,20.50
2014,07,17,09,36,20.50
2014,07,17,09,37,20.50
2014,07,17,09,38,20.60
2014,07,17,09,39,20.60
2014,07,17,09,40,20.60
2014,07,17,09,41,20.60
2014,07,17,09,42,20.60
2014,07,17,09,43,20.70
2014,07,17,09,44,20.70
2014,07,17,09,45,20.70
2014,07,17,09,46,20.60
2014,07,17,09,47,20.60
2014,07,17,09,48,20.60
2014,07,17,09,49,20.60
2014,07,17,09,50,20.60
2014,07,17,09,51,20.70
2014,07,17,09,52,20.70
2014,07,17,09,53,20.70
2014,07,17,09,54,20.70
2014,07,17,09,55,20.80
2014,07,17,09,56,20.80
2014,07,17,09,57,20.80
2014,07,17,09,58,20.80
2014,07,17,09,59,20.80
2014,07,17,10,00,20.90
2014,07,17,10,01,20.90
2014,07,17,10,02,21.00
2014,07,17,10,03,21.00
2014,07,17,10,04,21.00
2014,07,17,10,05,21.00
2014,07,17,10,06,20.90
2014,07,17,10,07,20.90
2014,07,17,10,08,20.80
2014,07,17,10,09,20.80
2014,07,17,10,10,20.70
2014,07,17,10,11,20.70
2014,07,17,10,12,20.60
2014,07,17,10,13,20.60
2014,07,17,10,14,20.60
2014,07,17,10,15,20.60
2014,07,17,10,16,20.70
2014,07,17,10,17,20.70
2014,07,17,10,18,20.80
2014,07,17,10,19,20.80
2014,07,17,10,20,20.90
2014,07,17,10,21,20.90
2014,07,17,10,22,20.90
2014,07,17,10,23,20.80
2014,07,17,10,24,20.70
2014,07,17,10,25,20.60
2014,07,17,10,26,20.60
2014,07,17,10,27,20.60
2014,07,17,10,28,20.60
2014,07,17,10,29,20.60
2014,07,17,10,30,20.70
2014,07,17,10,31,20.80
2014,07,17,10,32,20.80
2014,07,17,10,33,20.80
2014,07,17,10,34,20.80
2014,07,17,10,35,20.80
2014,07,17,10,36,20.80
2014,07,17,10,37,20.80
2014,07,17,10,38,20.80
2014,07,17,10,39,20.90
2014,07,17,10,40,20.80
2014,07,17,10,41,20.80
2014,07,17,10,42,20.80
2014,07,17,10,43,20.80
2014,07,17,10,44,20.80
2014,07,17,10,45,20.90
2014,07,17,10,46,20.90
2014,07,17,10,47,20.80
2014,07,17,10,48,20.80
2014,07,17,10,49,20.80
2014,07,17,10,50,20.80
2014,07,17,10,51,20.80
2014,07,17,10,52,20.90
2014,07,17,10,53,20.90
2014,07,17,10,54,21.00
2014,07,17,10,55,21.10
2014,07,17,10,56,21.10
2014,07,17,10,57,21.20
2014,07,17,10,58,21.30
2014,07,17,10,59,21.30
2014,07,17,11,00,21.30
2014,07,17,11,01,21.30
2014,07,17,11,02,21.30
2014,07,17,11,03,21.40
2014,07,17,11,04,21.30
2014,07,17,11,05,21.30
2014,07,17,11,06,21.30
2014,07,17,11,07,21.30
2014,07,17,11,08,21.30
2014,07,17,11,09,21.30
2014,07,17,11,10,21.20
2014,07,17,11,11,21.10
2014,07,17,11,12,21.00
2014,07,17,11,13,21.00
2014,07,17,11,14,20.90
2014,07,17,11,15,20.90
2014,07,17,11,16,20.90
2014,07,17,11,17,21.00
2014,07,17,11,18,21.10
2014,07,17,11,19,21.20
2014,07,17,11,20,21.20
2014,07,17,11,21,21.30
2014,07,17,11,22,21.30
2014,07,17,11,23,21.40
2014,07,17,11,24,21.40
2014,07,17,11,25,21.40
2014,07,17,11,26,21.40
2014,07,17,11,27,21.40
2014,07,17,11,28,21.40
2014,07,17,11,29,21.30
2014,07,17,11,30,21.30
2014,07,17,11,31,21.30
2014,07,17,11,32,21.30
2014,07,17,11,33,21.30
2014,07,17,11,34,21.40
2014,07,17,11,35,21.30
2014,07,17,11,36,21.30
2014,07,17,11,37,21.20
2014,07,17,11,38,21.20
2014,07,17,11,39,21.10
2014,07,17,11,40,21.10
2014,07,17,11,41,21.20
2014,07,17,11,42,21.20
2014,07,17,11,43,21.30
2014,07,17,11,44,21.30
2014,07,17,11,45,21.30
2014,07,17,11,46,21.40
2014,07,17,11,47,21.50
2014,07,17,11,48,21.60
2014,07,17,11,49,21.60
2014,07,17,11,50,21.60
2014,07,17,11,51,21.60
2014,07,17,11,52,21.60
2014,07,17,11,53,21.70
2014,07,17,11,54,21.70
2014,07,17,11,55,21.80
2014,07,17,11,56,21.80
2014,07,17,11,57,21.80
2014,07,17,11,58,21.70
2014,07,17,11,59,21.70
2014,07,17,12,00,21.70
2014,07,17,12,01,21.70
2014,07,17,12,02,21.80
2014,07,17,12,03,21.80
2014,07,17,12,04,21.90
2014,07,17,12,05,21.90
2014,07,17,12,06,21.90
2014,07,17,12,07,21.90
2014,07,17,12,08,22.00
2014,07,17,12,09,22.10
2014,07,17,12,10,22.10
2014,07,17,12,11,22.20
2014,07,17,12,12,22.20
2014,07,17,12,13,22.20
2014,07,17,12,14,22.10
2014,07,17,12,15,22.00
2014,07,17,12,16,22.00
2014,07,17,12,17,21.90
2014,07,17,12,18,21.90
2014,07,17,12,19,21.80
2014,07,17,12,20,21.80
2014,07,17,12,21,21.70
2014,07,17,12,22,21.70
2014,07,17,12,23,21.80
2014,07,17,12,24,21.80
2014,07,17,12,25,21.80
2014,07,17,12,26,21.80
2014,07,17,12,27,21.80
2014,07,17,12,28,21.80
2014,07,17,12,29,21.80
2014,07,17,12,30,21.80
2014,07,17,12,31,21.80
2014,07,17,12,32,21.80
2014,07,17,12,33,21.90
2014,07,17,12,34,21.90
2014,07,17,12,35,21.90
2014,07,17,12,36,22.00
2014,07,17,12,37,22.00
2014,07,17,12,38,22.10
2014,07,17,12,39,22.20
2014,07,17,12,40,22.30
2014,07,17,12,41,22.30
2014,07,17,12,42,22.30
2014,07,17,12,43,22.30
2014,07,17,12,44,22.30
2014,07,17,12,45,22.30
2014,07,17,12,46,22.20
2014,07,17,12,47,22.20
2014,07,17,12,48,22.30
2014,07,17,12,49,22.30
2014,07,17,12,50,22.40
2014,07,17,12,51,22.50
2014,07,17,12,52,22.60
2014,07,17,12,53,22.70
2014,07,17,12,54,22.70
2014,07,17,12,55,22.90
2014,07,17,12,56,23.00
2014,07,17,12,57,23.10
2014,07,17,12,58,23.20
2014,07,17,12,59,23.30
2014,07,17,13,00,23.40
2014,07,17,13,01,23.40
2014,07,17,13,02,23.50
2014,07,17,13,03,23.60
2014,07,17,13,04,23.60
2014,07,17,13,05,23.70
2014,07,17,13,06,23.70
2014,07,17,13,07,23.70
2014,07,17,13,08,23.70
2014,07,17,13,09,23.60
2014,07,17,13,10,23.50
2014,07,17,13,11,23.40
2014,07,17,13,12,23.30
2014,07,17,13,13,23.10
2014,07,17,13,14,23.10
2014,07,17,13,15,23.10
2014,07,17,13,16,23.10
2014,07,17,13,17,23.10
2014,07,17,13,18,23.10
2014,07,17,13,19,23.20
2014,07,17,13,20,23.10
2014,07,17,13,21,23.10
2014,07,17,13,22,23.00
2014,07,17,13,23,23.00
2014,07,17,13,24,22.90
2014,07,17,13,25,22.80
2014,07,17,13,26,22.80
2014,07,17,13,27,22.80
2014,07,17,13,28,22.80
2014,07,17,13,29,22.80
2014,07,17,13,30,22.80
2014,07,17,13,31,22.90
2014,07,17,13,32,22.90
2014,07,17,13,33,22.90
2014,07,17,13,34,22.90
2014,07,17,13,35,22.90
2014,07,17,13,36,23.00
2014,07,17,13,37,23.10
2014,07,17,13,38,23.10
2014,07,17,13,39,23.10
2014,07,17,13,40,23.20
2014,07,17,13,41,23.20
2014,07,17,13,42,23.20
2014,07,17,13,43,23.20
2014,07,17,13,44,23.30
2014,07,17,13,45,23.30
2014,07,17,13,46,23.30
2014,07,17,13,47,23.40
2014,07,17,13,48,23.40
2014,07,17,13,49,23.40
2014,07,17,13,50,23.40
2014,07,17,13,51,23.40
2014,07,17,13,52,23.40
2014,07,17,13,53,23.50
2014,07,17,13,54,23.50
2014,07,17,13,55,23.40
2014,07,17,13,56,23.40
2014,07,17,13,57,23.40
2014,07,17,13,58,23.40
2014,07,17,13,59,23.40
2014,07,17,14,00,23.50
2014,07,17,14,01,23.60
2014,07,17,14,02,23.60
2014,07,17,14,03,23.70
2014,07,17,14,04,23.70
2014,07,17,14,05,23.80
2014,07,17,14,06,23.80
2014,07,17,14,07,23.80
2014,07,17,14,08,23.80
2014,07,17,14,09,23.80
2014,07,17,14,10,23.90
2014,07,17,14,11,23.90
2014,07,17,14,12,23.90
2014,07,17,14,13,24.00
2014,07,17,14,14,24.10
2014,07,17,14,15,24.10
2014,07,17,14,16,24.20
2014,07,17,14,17,24.20
2014,07,17,14,18,24.30
2014,07,17,14,19,24.30
2014,07,17,14,20,24.40
2014,07,17,14,21,24.40
2014,07,17,14,22,24.40
2014,07,17,14,23,24.40
2014,07,17,14,24,24.40
2014,07,17,14,25,24.40
2014,07,17,14,26,24.40
2014,07,17,14,27,24.40
2014,07,17,14,28,24.40
2014,07,17,14,29,24.30
2014,07,17,14,30,24.20
2014,07,17,14,31,24.10
2014,07,17,14,32,23.90
2014,07,17,14,33,23.90
2014,07,17,14,34,23.90
2014,07,17,14,35,23.90
2014,07,17,14,36,23.90
2014,07,17,14,37,23.90
2014,07,17,14,38,23.80
2014,07,17,14,39,23.70
2014,07,17,14,40,23.60
2014,07,17,14,41,23.60
2014,07,17,14,42,23.50
2014,07,17,14,43,23.50
2014,07,17,14,44,23.50
2014,07,17,14,45,23.50
2014,07,17,14,46,23.50
2014,07,17,14,47,23.60
2014,07,17,14,48,23.60
2014,07,17,14,49,23.70
2014,07,17,14,50,23.80
2014,07,17,14,51,23.90
2014,07,17,14,52,24.00
2014,07,17,14,53,24.10
2014,07,17,14,54,24.30
2014,07,17,14,55,24.40
2014,07,17,14,56,24.40
2014,07,17,14,57,24.50
2014,07,17,14,58,24.60
2014,07,17,14,59,24.70
2014,07,17,15,00,24.70
2014,07,17,15,01,24.70
2014,07,17,15,02,24.80
2014,07,17,15,03,24.80
2014,07,17,15,04,24.70
2014,07,17,15,05,24.70
2014,07,17,15,06,24.60
2014,07,17,15,07,24.50
2014,07,17,15,08,24.50
2014,07,17,15,09,24.40
2014,07,17,15,10,24.40
2014,07,17,15,11,24.30
2014,07,17,15,12,24.30
2014,07,17,15,13,24.30
2014,07,17,15,14,24.30
2014,07,17,15,15,24.30
2014,07,17,15,16,24.30
2014,07,17,15,17,24.40
2014,07,17,15,18,24.40
2014,07,17,15,19,24.50
2014,07,17,15,20,24.50
2014,07,17,15,21,24.60
2014,07,17,15,22,24.60
2014,07,17,15,23,24.60
2014,07,17,15,24,24.60
2014,07,17,15,25,24.50
2014,07,17,15,26,24.30
2014,07,17,15,27,24.20
2014,07,17,15,28,24.00
2014,07,17,15,29,23.90
2014,07,17,15,30,23.80
2014,07,17,15,31,23.60
2014,07,17,15,32,23.50
2014,07,17,15,33,23.40
2014,07,17,15,34,23.50
2014,07,17,15,35,23.60
2014,07,17,15,36,23.60
2014,07,17,15,37,23.50
2014,07,17,15,38,23.30
2014,07,17,15,39,23.00
2014,07,17,15,40,22.80
2014,07,17,15,41,22.70
2014,07,17,15,42,22.60
2014,07,17,15,43,22.60
2014,07,17,15,44,22.70
2014,07,17,15,45,22.70
2014,07,17,15,46,22.70
2014,07,17,15,47,22.60
2014,07,17,15,48,22.60
2014,07,17,15,49,22.50
2014,07,17,15,50,22.50
2014,07,17,15,51,22.50
2014,07,17,15,52,22.60
2014,07,17,15,53,22.70
2014,07,17,15,54,22.70
2014,07,17,15,55,22.80
2014,07,17,15,56,22.80
2014,07,17,15,57,22.80
2014,07,17,15,58,22.70
2014,07,17,15,59,22.60
2014,07,17,16,00,22.40
2014,07,17,16,01,22.40
2014,07,17,16,02,22.40
2014,07,17,16,03,22.40
2014,07,17,16,04,22.40
2014,07,17,16,05,22.40
2014,07,17,16,06,22.50
2014,07,17,16,07,22.60
2014,07,17,16,08,22.70
2014,07,17,16,09,22.80
2014,07,17,16,10,22.90
2014,07,17,16,11,23.00
2014,07,17,16,12,23.00
2014,07,17,16,13,23.00
2014,07,17,16,14,23.00
2014,07,17,16,15,23.00
2014,07,17,16,16,23.00
2014,07,17,16,17,23.00
2014,07,17,16,18,23.00
2014,07,17,16,19,23.10
2014,07,17,16,20,23.10
2014,07,17,16,21,23.10
2014,07,17,16,22,23.10
2014,07,17,16,23,23.20
2014,07,17,16,24,23.20
2014,07,17,16,25,23.20
2014,07,17,16,26,23.20
2014,07,17,16,27,23.20
2014,07,17,16,28,23.20
2014,07,17,16,29,23.20
2014,07,17,16,30,23.20
2014,07,17,16,31,23.20
2014,07,17,16,32,23.20
2014,07,17,16,33,23.20
2014,07,17,16,34,23.20
2014,07,17,16,35,23.20
2014,07,17,16,36,23.20
2014,07,17,16,37,23.20
2014,07,17,16,38,23.10
2014,07,17,16,39,23.10
2014,07,17,16,40,23.10
2014,07,17,16,41,23.10
2014,07,17,16,42,23.00
2014,07,17,16,43,23.00
2014,07,17,16,44,23.00
2014,07,17,16,45,22.90
2014,07,17,16,46,22.90
2014,07,17,16,47,22.90
2014,07,17,16,48,22.90
2014,07,17,16,49,23.00
2014,07,17,16,50,23.10
2014,07,17,16,51,23.10
2014,07,17,16,52,23.10
2014,07,17,16,53,23.20
2014,07,17,16,54,23.20
2014,07,17,16,55,23.30
2014,07,17,16,56,23.20
2014,07,17,16,57,23.20
2014,07,17,16,58,23.10
2014,07,17,16,59,23.10
2014,07,17,17,00,23.00
2014,07,17,17,01,23.00
2014,07,17,17,02,22.90
2014,07,17,17,03,22.80
2014,07,17,17,04,22.80
2014,07,17,17,05,22.80
2014,07,17,17,06,22.70
2014,07,17,17,07,22.70
2014,07,17,17,08,22.70
2014,07,17,17,09,22.70
2014,07,17,17,10,22.70
2014,07,17,17,11,22.70
2014,07,17,17,12,22.80
2014,07,17,17,13,22.80
2014,07,17,17,14,22.90
2014,07,17,17,15,22.90
2014,07,17,17,16,22.80
2014,07,17,17,17,22.80
2014,07,17,17,18,22.70
2014,07,17,17,19,22.70